Weather History for Atlantic City, NJ

Change the Weather History Date:

Sunday, February 3, 2013

  Actual Average Record
Temperature  
Mean Temperature 29 °F 34 °F  
Max Temperature 36 °F 42 °F 66 °F (2006)
Min Temperature 22 °F 25 °F -4 °F (1881)
Degree Days  
Heating Degree Days 36 31  
Month to date heating degree days 118 95  
Since 1 July heating degree days 2678 2856  
Cooling Degree Days 0 0  
Month to date cooling degree days 0 0  
Year to date cooling degree days 0 0  
Moisture  
Dew Point 21 °F    
Average Humidity 72    
Maximum Humidity 96    
Minimum Humidity 47    
Precipitation  
Precipitation 0.02 in 0.09 in 1.61 in (1880)
Month to date precipitation 0.17 0.29  
Year to date precipitation 2.47 3.51  
Snow  
Snow 0.10 in 0.30 in 4.20 in (1961)
Month to date snowfall 3.1 0.8  
Since 1 July snowfall 8.2 9.2  
Snow Depth 1.00 in    
Sea Level Pressure  
Sea Level Pressure 29.90 in    
Wind  
Wind Speed 5 mph (WNW)    
Max Wind Speed 14 mph    
Max Gust Speed 18 mph    
Visibility 9 miles    
Events Snow    
T = Trace of Precipitation, MM = Missing Value Source: NWS Daily Summary

Daily Weather History Graph

Daily Weather History Graph

Search for Another Location

Airport:

Trip Planner

Search our weather history database for the weather conditions in past years. The results will help you decide how hot, cold, wet, or windy it might be!

Date:

Astronomy

Feb. 03, 2013 Rise Set
Actual Time 7:03 AM EST 5:21 PM EST
Civil Twilight 6:35 AM EST 5:49 PM EST
Nautical Twilight 6:03 AM EST 6:21 PM EST
Astronomical Twilight 5:31 AM EST 6:52 PM EST
Moon 12:28 AM EST (2/3) 10:56 AM EST (2/3)
Length of Visible Light 11h 14m
Length of Day
10h 17m
Waning Gibbous, 49% of the Moon is Illuminated
Feb 3
Waning Gibbous
Feb 10
New
Feb 17
First Quarter
Feb 25
Full
Mar 4
Last Quarter

Hourly Weather History & Observations

Time (EST) Temp. Windchill Dew Point Humidity Pressure Visibility Wind Dir Wind Speed Gust Speed Precip Events Conditions
12:25 AM 26.1 °F 21.9 °F 24.1 °F 92% 30.05 in 1.5 mi South 3.5 mph - 0.01 in Snow Light Snow
12:54 AM 26.1 °F 21.9 °F 24.1 °F 92% 30.03 in 1.5 mi SSE 3.5 mph - 0.01 in Snow Light Snow
1:54 AM 27.0 °F - 24.1 °F 89% 30.00 in 10.0 mi Calm Calm - 0.00 in   Overcast
2:54 AM 25.0 °F - 21.9 °F 88% 29.97 in 6.0 mi Calm Calm - N/A   Overcast
3:54 AM 24.1 °F 19.7 °F 21.9 °F 91% 29.95 in 9.0 mi NNW 3.5 mph - N/A   Overcast
4:54 AM 21.9 °F - 19.9 °F 92% 29.94 in 7.0 mi Calm Calm - N/A   Mostly Cloudy
5:54 AM 24.1 °F - 21.0 °F 88% 29.94 in 9.0 mi Calm Calm - N/A   Overcast
6:54 AM 23.0 °F 17.0 °F 19.9 °F 88% 29.95 in 10.0 mi North 4.6 mph - N/A   Overcast
7:54 AM 23.0 °F - 21.0 °F 92% 29.95 in 10.0 mi Calm Calm - N/A   Clear
8:54 AM 26.1 °F 17.6 °F 21.9 °F 84% 29.94 in 10.0 mi North 8.1 mph - N/A   Clear
9:13 AM 25.0 °F 14.8 °F 21.0 °F 85% 29.94 in 10.0 mi North 10.4 mph - N/A   Partly Cloudy
9:54 AM 26.1 °F 17.6 °F 21.0 °F 81% 29.93 in 10.0 mi North 8.1 mph - N/A   Scattered Clouds
10:54 AM 28.9 °F 21.9 °F 21.9 °F 75% 29.91 in 10.0 mi NW 6.9 mph - N/A   Clear
11:54 AM 30.9 °F 23.5 °F 21.9 °F 69% 29.88 in 10.0 mi NNW 8.1 mph - N/A   Clear
12:54 PM 33.1 °F 30.0 °F 21.9 °F 64% 29.85 in 10.0 mi NW 3.5 mph - N/A   Clear
1:54 PM 35.1 °F 28.6 °F 19.9 °F 54% 29.82 in 10.0 mi NNW 8.1 mph - N/A   Clear
2:54 PM 35.1 °F 26.4 °F 19.9 °F 54% 29.82 in 10.0 mi WNW 12.7 mph - N/A   Clear
3:54 PM 35.1 °F 28.6 °F 18.0 °F 50% 29.82 in 10.0 mi North 8.1 mph - N/A   Scattered Clouds
4:54 PM 32.0 °F 24.2 °F 16.0 °F 52% 29.83 in 10.0 mi NW 9.2 mph - N/A   Mostly Cloudy
5:54 PM 30.0 °F 23.2 °F 17.1 °F 59% 29.84 in 10.0 mi West 6.9 mph - N/A   Clear
6:54 PM 28.0 °F 24.2 °F 17.1 °F 63% 29.85 in 10.0 mi West 3.5 mph - N/A   Clear
7:54 PM 28.0 °F 22.8 °F 17.1 °F 63% 29.85 in 10.0 mi WSW 4.6 mph - N/A   Clear
8:54 PM 26.1 °F 20.5 °F 17.1 °F 69% 29.86 in 10.0 mi WSW 4.6 mph - N/A   Clear
9:54 PM 26.1 °F 21.9 °F 18.0 °F 71% 29.86 in 10.0 mi WSW 3.5 mph - N/A   Mostly Cloudy
10:54 PM 28.0 °F 21.7 °F 19.9 °F 72% 29.86 in 10.0 mi WSW 5.8 mph - N/A   Overcast
11:40 PM 28.0 °F 20.8 °F 21.9 °F 78% 29.86 in 2.5 mi WSW 6.9 mph - 0.01 in Snow Light Snow
11:49 PM 28.4 °F 20.4 °F 23.0 °F 80% 29.86 in 9.0 mi WSW 8.1 mph - 0.01 in   Overcast
11:54 PM 28.9 °F 22.8 °F 23.0 °F 78% 29.86 in 9.0 mi WSW 5.8 mph - 0.01 in Snow Light Snow